NOAA 16 DEB, 41220

Orbit data source: Space-Track

NOAA 16 DEB, 41220 is space debris in SSO originally from a launch on Thu, 21 Sep 2000 UTC launched from the Air Force Western Test Range (AFWTR). Debris objects in space refer to the collection of defunct objects orbiting the Earth. Examples of debris include non-operational satellites, rocket bodies, and fragments generated from explosions, collisions, or faulty payload assembly.

Loading next visibility...
Identifier
41220, 2000-055DZ
Orbit
SSO
Country
Flag of USUS
Related business
Manufacturer
Unknown
Mission
Spacecraft
Bus & Motor
Unknown
Mass
Unknown
Launch date (UTC)
Icon of a cake. It is the launch day of the satellite!2000-09-21 (26 years ago)
Launch vehicle
Unknown
Launch site
Air Force Western Test Range (AFWTR)
Object type
Payload
Rocket body
Debris
Shape & HBR
Unknown shape, 0.1 m
Radar Cross Section
Medium (>0.1 m² and <1 m²)

Expand to show TLE details & history
Last TLE update: 1 day ago

TLE from 1 day ago
0 NOAA 16 DEB
1 41220U 00055DZ  26263.39549742  .00001549  00000-0  70238-3 0  9993
2 41220  98.6653 309.7291 0013166 262.2397  97.7286 14.23300972555732
Epoch: 2026-09-20T09:29Z
TLE epoch observation values (Epoch: 2026-09-20T09:29:30.977Z)
Latitude
-0.00006°
Longitude
168.05975°
Altitude
818.417 km
Speed
7.443 km/s
True Right ascension
20h 38m 54s
True Declination
0° 00' 00"
Sunlit
Object was in full shadow at epoch
Visualization orbit readout
Latitude
Unknown
Longitude
Unknown
Altitude
Unknown
Speed
Unknown
Apparent Right ascension
Unknown
Apparent Declination
Unknown
Sunlit
N/A
Visualization observer readout
Local Sidereal Time
09:56:57
Azimuth
Unknown
Elevation
Unknown
Doppler factor
Unknown
Orbital elements
Apogee altitude
820.828 km
Perigee altitude
801.897 km
Semi-major axis
7,189.5 km
Eccentricity
0.00132
Inclination
98.6653°
RAAN
309.7291°
Arg. of periapsis
262.2397°
True anomaly
97.87807°
Mean anomaly
97.7286°
Eccentric anomaly
97.80334°
Mean motion
3.56037 °/min
Orbital period
101.11 mins
BSTAR
0.00070238
Loading maneuver chart data...
Computing Atmospheric mass density...

Documentation

Showing up to 5 results
|